Flag for Canada Weather past 2 weeks in Kitchener, Ontario, Canada

Now
1 °F

Clear.


Feels Like: -11 °F
Forecast: -7 / 19 °F
Wind: 7 mph from Northwest

Location: Waterloo Well

Current Time: Mar 5, 2015 at 10:15:59 PM

Latest Report: Mar 5, 2015 at 9:00 PM


Visibility: 9 mi

Pressure: 30.50 "Hg

Humidity: 71%

Dew point: -6 °F

Location of KitchenerLocation

Historic Weather in Kitchener — Graph

°F

Kitchener temperature yesterday

Maximum temperature yesterday: 30 °F (at 12:00 AM)
Minimum temperature yesterday: 12 °F (at 11:00 PM)
Average temperature yesterday: 26 °F

Past Weeks' High & Low Weather Summary

 TemperatureHumidityPressure
High32 °F (Mar 3, 8:00 PM)100% (Mar 1, 11:00 PM)30.78 "Hg (Mar 1, 11:00 PM)
Low-15 °F (Feb 20, 7:00 AM)42% (Feb 20, 4:00 PM)29.58 "Hg (Mar 3, 8:00 PM)
Average7 °F76%30.21 "Hg
* Reported Feb 18 9:00 PM — Mar 5 9:00 PM, Kitchener, Weather by CustomWeather, © 2015

Note: Actual official high and low records may vary slightly from our data, if they occured in-between our weather recording intervals... More about our weather records

Advertising

Kitchener weather history for previous 24 hours

 ConditionsComfort  
Time TempWeatherWind HumidityBarometerVisibility
9:00 PM
Thu, Mar 5
1 °FClear.7 mph71%30.50 "Hg9 mi
8:00 PM3 °FClear.6 mph72%30.50 "Hg9 mi
7:00 PM5 °FClear.8 mph66%30.47 "Hg9 mi
6:00 PM7 °FSunny.14 mph61%30.43 "Hg9 mi
5:00 PM9 °FSunny.13 mph56%30.40 "Hg9 mi
4:00 PM10 °FSunny.13 mph52%30.38 "Hg9 mi
3:00 PM10 °FPartly sunny.12 mph56%30.37 "Hg9 mi
2:00 PM9 °FSunny.10 mph61%30.37 "Hg9 mi
1:00 PM9 °FSunny.13 mph61%30.38 "Hg9 mi
12:00 PM7 °FSunny.12 mph66%30.37 "Hg9 mi
11:00 AM5 °FSunny.12 mph66%30.39 "Hg9 mi
10:00 AM5 °FSunny.13 mph66%30.34 "Hg9 mi
9:00 AM1 °FSunny.14 mph78%30.36 "Hg9 mi
8:00 AM0 °FSunny.6 mph78%30.34 "Hg9 mi
7:00 AM0 °FSunny.7 mph78%30.32 "Hg9 mi
6:00 AM0 °FClear.7 mph78%30.32 "Hg9 mi
5:00 AM1 °FClear.7 mph71%30.29 "Hg9 mi
4:00 AM1 °FClear.8 mph71%30.27 "Hg9 mi
3:00 AM3 °FPassing clouds.9 mph72%30.25 "Hg9 mi
2:00 AM5 °FPassing clouds.17 mph66%30.24 "Hg9 mi
1:00 AM7 °FPassing clouds.16 mph61%30.22 "Hg9 mi
12:00 AM10 °FMostly cloudy.20 mph72%30.19 "Hg9 mi
11:00 PM
Wed, Mar 4
12 °FOvercast.15 mph73%30.13 "Hg9 mi
10:00 PM16 °FLight snow. Overcast.23 mph79%30.05 "Hg9 mi
Weather by CustomWeather, © 2015

See weather overviewHow to use our weather pages